Weather History for Opa Locka, FL

Change the Weather History Date:

Tuesday, January 22, 2013

  Actual Average Record
Temperature  
Mean Temperature 70 °F -  
Max Temperature 78 °F 74 °F 86 °F (1990)
Min Temperature 63 °F 56 °F 34 °F (1960)
Cooling Degree Days 6    
Growing Degree Days 20 (Base 50)    
Moisture  
Dew Point 59 °F    
Average Humidity 74    
Maximum Humidity 94    
Minimum Humidity 48    
Precipitation  
Precipitation 0.00 in - - ()
Sea Level Pressure  
Sea Level Pressure 30.11 in    
Wind  
Wind Speed 8 mph (NNW)    
Max Wind Speed 16 mph    
Max Gust Speed 22 mph    
Visibility 10 miles    
Events      
Averages and records for this station are not official NWS values.
T = Trace of Precipitation, MM = Missing Value Source: NWS Daily Summary

Daily Weather History Graph

Daily Weather History Graph

Search for Another Location

Airport:

Trip Planner

Search our weather history database for the weather conditions in past years. The results will help you decide how hot, cold, wet, or windy it might be!

Date:

Astronomy

Jan. 22, 2013 Rise Set
Actual Time 7:08 AM EST 5:57 PM EST
Civil Twilight 6:44 AM EST 6:21 PM EST
Nautical Twilight 6:16 AM EST 6:49 PM EST
Astronomical Twilight 5:48 AM EST 7:17 PM EST
Moon 2:23 PM EST (1/22) 3:25 AM EST (1/22)
Length of Visible Light 11h 37m
Length of Day
10h 48m
Waxing Gibbous, 82% of the Moon is Illuminated
Jan 22
Waxing Gibbous
Jan 26
Full
Feb 3
Last Quarter
Feb 10
New
Feb 17
First Quarter

Hourly Weather History & Observations

Time (EST) Temp. Dew Point Humidity Pressure Visibility Wind Dir Wind Speed Gust Speed Precip Events Conditions
12:53 AM 66.9 °F 64.0 °F 90% 30.05 in 10.0 mi NW 6.9 mph - N/A   Clear
1:53 AM 66.0 °F 63.0 °F 90% 30.04 in 10.0 mi WNW 4.6 mph - N/A   Clear
2:26 AM 66.2 °F 64.4 °F 94% 30.04 in 10.0 mi West 5.8 mph - N/A   Overcast
2:44 AM 66.2 °F 64.4 °F 94% 30.03 in 10.0 mi WNW 6.9 mph - N/A   Overcast
2:53 AM 66.0 °F 64.0 °F 93% 30.03 in 10.0 mi West 5.8 mph - N/A   Overcast
3:36 AM 64.4 °F 62.6 °F 94% 30.02 in 10.0 mi NW 8.1 mph - N/A   Scattered Clouds
3:53 AM 64.9 °F 63.0 °F 93% 30.03 in 10.0 mi NW 8.1 mph - N/A   Mostly Cloudy
4:53 AM 64.9 °F 62.1 °F 90% 30.04 in 10.0 mi NW 6.9 mph - N/A   Scattered Clouds
5:53 AM 64.0 °F 61.0 °F 90% 30.06 in 10.0 mi NW 9.2 mph - N/A   Clear
6:53 AM 63.0 °F 60.1 °F 90% 30.08 in 10.0 mi NW 8.1 mph - N/A   Partly Cloudy
7:53 AM 63.0 °F 59.0 °F 87% 30.11 in 10.0 mi NNW 8.1 mph - N/A   Clear
8:53 AM 66.9 °F 59.0 °F 76% 30.12 in 10.0 mi North 8.1 mph - N/A   Clear
9:53 AM 70.0 °F 59.0 °F 68% 30.14 in 10.0 mi NNW 12.7 mph - N/A   Clear
10:53 AM 71.1 °F 57.9 °F 63% 30.14 in 10.0 mi North 11.5 mph - N/A   Clear
11:53 AM 73.9 °F 57.9 °F 57% 30.14 in 10.0 mi North 11.5 mph - N/A   Clear
12:53 PM 77.0 °F 57.9 °F 52% 30.11 in 10.0 mi North 10.4 mph - N/A   Mostly Cloudy
1:53 PM 78.1 °F 57.9 °F 50% 30.10 in 10.0 mi NNW 12.7 mph - N/A   Scattered Clouds
2:53 PM 78.1 °F 57.0 °F 48% 30.09 in 10.0 mi North 12.7 mph 18.4 mph N/A   Scattered Clouds
3:53 PM 75.9 °F 57.0 °F 52% 30.11 in 10.0 mi North 15.0 mph 21.9 mph N/A   Mostly Cloudy
4:53 PM 73.9 °F 55.9 °F 53% 30.12 in 10.0 mi NNE 16.1 mph - N/A   Scattered Clouds
5:53 PM 71.1 °F 55.9 °F 59% 30.15 in 10.0 mi North 13.8 mph 19.6 mph N/A   Partly Cloudy
6:53 PM 69.1 °F 55.9 °F 63% 30.16 in 10.0 mi North 9.2 mph - N/A   Clear
7:53 PM 68.0 °F 55.0 °F 63% 30.17 in 10.0 mi North 10.4 mph - N/A   Clear
8:53 PM 66.9 °F 54.0 °F 63% 30.19 in 10.0 mi North 6.9 mph - N/A   Partly Cloudy
9:53 PM 66.0 °F 54.0 °F 65% 30.22 in 10.0 mi NNW 8.1 mph - N/A   Mostly Cloudy
10:53 PM 64.9 °F 55.0 °F 70% 30.22 in 10.0 mi North 8.1 mph - N/A   Clear
11:53 PM 63.0 °F 55.9 °F 78% 30.21 in 10.0 mi NNW 8.1 mph - N/A   Clear